When you browse on this site, cookies collect data to enhance your experience and personalize the content and advertising you see.
Visit our Privacy Policy to learn more. By continuing to use the site, you agree to this use of cookies and data.
  • In Hungary
  • List of Countries
  • For 7 days
  • Water Temperature
  • Weather Map
  • News
  • Weather Widgets
  • user-avatar
    Login

    Hourly Weather Mons

    Today, 12 November, Tuesday

    Time Temperature Precipitation Wind Pressure Humidity
    00:00 +2°C° 0 mm 5 mps 750 mmHg 93%
    01:00 +3°C° 0.1 mm 6 mps 749 mmHg 93%
    02:00 +3°C° 0.1 mm 6 mps 749 mmHg 92%
    03:00 +3°C° 0.1 mm 6 mps 749 mmHg 92%
    04:00 +3°C° 0.4 mm 6 mps 749 mmHg 92%
    05:00 +3°C° 0.4 mm 5 mps 748 mmHg 93%
    06:00 +3°C° 0.4 mm 5 mps 748 mmHg 94%
    07:00 +3°C° 0.9 mm 5 mps 748 mmHg 92%
    08:00 +3°C° 0.9 mm 5 mps 748 mmHg 90%
    09:00 +3°C° 0.9 mm 5 mps 748 mmHg 88%
    10:00 +5°C° 0.3 mm 5 mps 748 mmHg 82%
    11:00 +5°C° 0.3 mm 6 mps 748 mmHg 76%
    12:00 +7°C° 0.3 mm 6 mps 748 mmHg 70%
    13:00 +7°C° 0 mm 6 mps 748 mmHg 71%
    14:00 +5°C° 0 mm 6 mps 748 mmHg 73%
    15:00 +6°C° 0 mm 5 mps 748 mmHg 75%
    16:00 +5°C° 0 mm 5 mps 748 mmHg 78%
    17:00 +3°C° 0 mm 5 mps 748 mmHg 81%
    18:00 +2°C° 0 mm 6 mps 748 mmHg 85%
    19:00 +3°C° 0.1 mm 6 mps 748 mmHg 85%
    20:00 +3°C° 0.1 mm 6 mps 748 mmHg 85%
    21:00 +3°C° 0.1 mm 6 mps 748 mmHg 86%
    22:00 +3°C° 0.3 mm 6 mps 748 mmHg 87%
    23:00 +3°C° 0.3 mm 6 mps 748 mmHg 89%

    Tomorrow, 13 November, Wednesday

    Time Temperature Precipitation Wind Pressure Humidity
    00:00 +3°C° 0.3 mm 5 mps 748 mmHg 91%
    01:00 +3°C° 0 mm 5 mps 748 mmHg 92%
    02:00 +4°C° 0 mm 4 mps 748 mmHg 94%
    03:00 +3°C° 0 mm 4 mps 748 mmHg 95%
    04:00 +3°C° 0 mm 4 mps 748 mmHg 95%
    05:00 +3°C° 0 mm 3 mps 748 mmHg 96%
    06:00 +2°C° 0 mm 3 mps 749 mmHg 96%
    07:00 +3°C° 0 mm 3 mps 749 mmHg 95%
    08:00 +4°C° 0 mm 3 mps 749 mmHg 93%
    09:00 +5°C° 0 mm 3 mps 749 mmHg 91%
    10:00 +7°C° 0 mm 3 mps 749 mmHg 88%
    11:00 +7°C° 0 mm 3 mps 748 mmHg 85%
    12:00 +7°C° 0 mm 4 mps 748 mmHg 82%
    13:00 +7°C° 0.1 mm 4 mps 748 mmHg 83%
    14:00 +7°C° 0.1 mm 4 mps 748 mmHg 84%
    15:00 +7°C° 0.1 mm 5 mps 747 mmHg 85%
    16:00 +6°C° 0.1 mm 4 mps 747 mmHg 86%
    17:00 +6°C° 0.1 mm 4 mps 747 mmHg 87%
    18:00 +5°C° 0.1 mm 4 mps 747 mmHg 88%
    19:00 +5°C° 0 mm 5 mps 747 mmHg 89%
    20:00 +5°C° 0 mm 5 mps 746 mmHg 90%
    21:00 +3°C° 0 mm 6 mps 746 mmHg 90%
    22:00 +3°C° 0 mm 6 mps 745 mmHg 90%
    23:00 +3°C° 0 mm 6 mps 745 mmHg 90%

    Day after tomorrow, 14 November, Thursday

    Time Temperature Precipitation Wind Pressure Humidity
    00:00 +2°C° 0 mm 6 mps 745 mmHg 89%
    01:00 +2°C° 0.1 mm 6 mps 744 mmHg 89%
    02:00 +2°C° 0.1 mm 7 mps 744 mmHg 89%
    03:00 +2°C° 0.1 mm 7 mps 743 mmHg 88%
    04:00 +2°C° 0.6 mm 7 mps 744 mmHg 90%
    05:00 +2°C° 0.6 mm 7 mps 744 mmHg 92%
    06:00 +2°C° 0.6 mm 6 mps 744 mmHg 94%
    07:00 +2°C° 0.1 mm 6 mps 745 mmHg 91%
    08:00 +3°C° 0.1 mm 6 mps 745 mmHg 88%
    09:00 +3°C° 0.1 mm 6 mps 746 mmHg 85%
    10:00 +4°C° 0 mm 6 mps 746 mmHg 82%
    11:00 +4°C° 0 mm 6 mps 747 mmHg 79%
    12:00 +5°C° 0 mm 6 mps 748 mmHg 77%
    13:00 +6°C° 0 mm 5 mps 748 mmHg 78%
    14:00 +5°C° 0 mm 4 mps 748 mmHg 79%
    15:00 +5°C° 0 mm 3 mps 748 mmHg 80%
    16:00 +4°C° 0 mm 3 mps 748 mmHg 82%
    17:00 +4°C° 0 mm 2 mps 748 mmHg 85%
    18:00 +4°C° 0 mm 2 mps 749 mmHg 87%
    19:00 +3°C° 0 mm 2 mps 749 mmHg 88%
    20:00 +3°C° 0 mm 2 mps 749 mmHg 89%
    21:00 +3°C° 0 mm 2 mps 749 mmHg 91%
    22:00 +3°C° 0 mm 2 mps 749 mmHg 90%
    23:00 +3°C° 0 mm 2 mps 748 mmHg 89%

    15 November, Friday

    Time Temperature Precipitation Wind Pressure Humidity
    00:00 +2°C° 0 mm 3 mps 748 mmHg 89%
    01:00 +2°C° 0 mm 3 mps 748 mmHg 88%
    02:00 +2°C° 0 mm 3 mps 748 mmHg 88%
    03:00 +1°C° 0 mm 4 mps 747 mmHg 88%
    04:00 +1°C° 0.4 mm 4 mps 747 mmHg 90%
    05:00 +1°C° 0.4 mm 4 mps 747 mmHg 93%
    06:00 0°C° 0.4 mm 4 mps 747 mmHg 95%
    07:00 +1°C° 0.3 mm 4 mps 747 mmHg 95%
    08:00 +2°C° 0.3 mm 3 mps 747 mmHg 96%
    09:00 +2°C° 0.3 mm 3 mps 747 mmHg 96%
    10:00 +2°C° 0.1 mm 3 mps 747 mmHg 95%
    11:00 +4°C° 0.1 mm 2 mps 747 mmHg 95%
    12:00 +4°C° 0.1 mm 2 mps 747 mmHg 94%
    13:00 +3°C° 0 mm 3 mps 747 mmHg 93%
    14:00 +3°C° 0 mm 3 mps 748 mmHg 91%
    15:00 +3°C° 0 mm 3 mps 748 mmHg 90%
    16:00 +3°C° 0 mm 3 mps 748 mmHg 91%
    17:00 +2°C° 0 mm 3 mps 749 mmHg 92%
    18:00 +2°C° 0 mm 3 mps 749 mmHg 93%
    19:00 +1°C° 0 mm 3 mps 750 mmHg 93%
    20:00 +1°C° 0 mm 3 mps 750 mmHg 92%
    21:00 +1°C° 0 mm 3 mps 751 mmHg 92%
    22:00 +1°C° 0 mm 3 mps 751 mmHg 92%
    23:00 +1°C° 0 mm 3 mps 751 mmHg 91%

    16 November, Saturday

    Time Temperature Precipitation Wind Pressure Humidity
    00:00 -1°C° 0 mm 4 mps 752 mmHg 91%
    01:00 -1°C° 0 mm 4 mps 752 mmHg 91%
    02:00 0°C° 0 mm 3 mps 752 mmHg 90%
    03:00 0°C° 0 mm 3 mps 752 mmHg 90%
    04:00 0°C° 0 mm 3 mps 752 mmHg 90%
    05:00 -1°C° 0 mm 3 mps 752 mmHg 91%
    06:00 -1°C° 0 mm 3 mps 753 mmHg 91%
    07:00 0°C° 0 mm 3 mps 753 mmHg 88%
    08:00 +1°C° 0 mm 3 mps 753 mmHg 85%
    09:00 +1°C° 0 mm 4 mps 754 mmHg 83%
    10:00 +4°C° 0 mm 4 mps 754 mmHg 80%
    11:00 +5°C° 0 mm 3 mps 754 mmHg 77%
    12:00 +7°C° 0 mm 3 mps 753 mmHg 74%
    13:00 +7°C° 0 mm 3 mps 753 mmHg 76%
    14:00 +7°C° 0 mm 3 mps 753 mmHg 79%
    15:00 +6°C° 0 mm 2 mps 753 mmHg 82%
    16:00 +5°C° 0 mm 2 mps 754 mmHg 84%
    17:00 +4°C° 0 mm 2 mps 754 mmHg 87%
    18:00 +2°C° 0 mm 3 mps 754 mmHg 89%
    19:00 +2°C° 0 mm 3 mps 754 mmHg 88%
    20:00 +2°C° 0 mm 3 mps 755 mmHg 87%
    21:00 +1°C° 0 mm 3 mps 755 mmHg 85%
    22:00 +2°C° 0 mm 2 mps 755 mmHg 86%
    23:00 +2°C° 0 mm 2 mps 754 mmHg 87%

    17 November, Sunday

    Time Temperature Precipitation Wind Pressure Humidity
    00:00 +1°C° 0 mm 2 mps 754 mmHg 87%
    01:00 +1°C° 0 mm 2 mps 754 mmHg 88%
    02:00 +1°C° 0 mm 2 mps 754 mmHg 88%
    03:00 +1°C° 0 mm 2 mps 753 mmHg 88%
    04:00 +1°C° 0 mm 2 mps 753 mmHg 89%
    05:00 +1°C° 0 mm 2 mps 753 mmHg 89%
    06:00 0°C° 0 mm 3 mps 753 mmHg 90%
    07:00 +1°C° 0 mm 3 mps 753 mmHg 88%
    08:00 +1°C° 0 mm 4 mps 752 mmHg 86%
    09:00 +1°C° 0 mm 4 mps 752 mmHg 83%
    10:00 +2°C° 0 mm 5 mps 752 mmHg 79%
    11:00 +3°C° 0 mm 5 mps 751 mmHg 75%
    12:00 +4°C° 0 mm 6 mps 750 mmHg 71%
    13:00 +3°C° 0.6 mm 6 mps 750 mmHg 75%
    14:00 +3°C° 0.6 mm 6 mps 749 mmHg 80%
    15:00 +3°C° 0.6 mm 6 mps 749 mmHg 85%
    16:00 +3°C° 2.8 mm 7 mps 748 mmHg 88%
    17:00 +2°C° 2.8 mm 8 mps 748 mmHg 91%
    18:00 +2°C° 2.8 mm 9 mps 747 mmHg 94%
    19:00 +2°C° 1.6 mm 8 mps 747 mmHg 95%
    20:00 +2°C° 1.6 mm 8 mps 747 mmHg 95%
    21:00 +4°C° 1.6 mm 7 mps 746 mmHg 95%
    22:00 +4°C° 1.6 mm 7 mps 746 mmHg 95%
    23:00 +4°C° 1.6 mm 7 mps 745 mmHg 95%
    Show more